Tracking 30995 objects as of 7-Jul-2025
HD Live streaming from Space Station
objects crossing your sky now

ONEWEB-0516

Track ONEWEB-0516 now!
10-day predictions
ONEWEB-0516 is classified as:


NORAD ID: 54134
Int'l Code: 2022-138X
Perigee: 1,191.4 km
Apogee: 1,194.4 km
Inclination: 87.9 °
Period: 109.1 minutes
Semi major axis: 7563 km
RCS: Unknown
Launch date: October 22, 2022
Source: United Kingdom (UK)
Launch site: SRIHARIKOTA (SRI)
Your satellite tracking list
SHANNON
Track 1 satellite(s)




NASA's NSSDC Master Catalog

Two Line Element Set (TLE):
1 54134U 22138X   25187.57427012  .00000018  00000-0  11782-4 0  9996
2 54134  87.9215  13.6992 0002009  89.7240 270.4123 13.19724105132112
Source of the keplerian elements: AFSPC